Location: Unspecified
(48.7670°N, 0.0000°E)
Time: 15:19:09
(UTC+00:00)

Altair - Pass Details

Date: 30 June 2019
Orbit: 1501 x 1683 km, 47.2° (Epoch: 19 August)

Event Time Altitude Azimuth Distance (km) Brightness Sun altitude
Rises 15:08:36 0° 175° (S) 4,631 10.1 45.6°
Reaches altitude 10° 15:13:30 10° 153° (SSE) 3,675 9.5 44.9°
Maximum altitude 15:17:51 14° 124° (SE) 3,370 9.2 44.2°
Drops below altitude 10° 15:22:14 10° 96° (E) 3,738 9.2 43.5°
Sets 15:27:16 0° 74° (ENE) 4,765 9.6 42.7°
